Weather History for Abilene, TX

Change the Weather History Date:

Sunday, October 16, 2011

  Actual Average Record
Temperature  
Mean Temperature 74 °F 66 °F  
Max Temperature 85 °F 77 °F 94 °F (1917)
Min Temperature 63 °F 54 °F 34 °F (2001)
Degree Days  
Heating Degree Days 0 3  
Month to date heating degree days 0 30  
Since 1 July heating degree days 0 41  
Cooling Degree Days 9 4  
Month to date cooling degree days 103 80  
Year to date cooling degree days 3445 2351  
Growing Degree Days 24 (Base 50)    
Moisture  
Dew Point 55 °F    
Average Humidity 55    
Maximum Humidity 73    
Minimum Humidity 37    
Precipitation  
Precipitation 0.00 in 0.12 in 3.38 in (1942)
Month to date precipitation 3.81 1.54  
Year to date precipitation 14.44 20.74  
Sea Level Pressure  
Sea Level Pressure 29.97 in    
Wind  
Wind Speed 11 mph (South)    
Max Wind Speed 18 mph    
Max Gust Speed 25 mph    
Visibility 10 miles    
Events      
T = Trace of Precipitation, MM = Missing Value Source: NWS Daily Summary

Daily Weather History Graph

Daily Weather History Graph

Search for Another Location

Airport:

Trip Planner

Search our weather history database for the weather conditions in past years. The results will help you decide how hot, cold, wet, or windy it might be!

Date:

Astronomy

Oct. 16, 2011 Rise Set
Actual Time 7:43 AM CDT 7:05 PM CDT
Civil Twilight 7:18 AM CDT 7:29 PM CDT
Nautical Twilight 6:49 AM CDT 7:58 PM CDT
Astronomical Twilight 6:21 AM CDT 8:26 PM CDT
Moon 10:06 PM CDT (10/16) 11:47 AM CDT (10/16)
Length of Visible Light 12h 11m
Length of Day
11h 21m
Waning Gibbous, 82% of the Moon is Illuminated
Oct 16
Waning Gibbous
Oct 19
Last Quarter
Oct 26
New
Nov 2
First Quarter
Nov 10
Full

Hourly Weather History & Observations

Time (CDT) Temp. Heat Index Dew Point Humidity Pressure Visibility Wind Dir Wind Speed Gust Speed Precip Events Conditions
12:52 AM 66.9 °F - 50.0 °F 54% 30.00 in 10.0 mi South 8.1 mph - N/A   Clear
1:52 AM 66.9 °F - 50.0 °F 54% 30.00 in 10.0 mi SSE 8.1 mph - N/A   Clear
2:52 AM 68.0 °F - 51.1 °F 55% 29.99 in 10.0 mi South 10.4 mph - N/A   Clear
3:52 AM 68.0 °F - 51.1 °F 55% 30.00 in 10.0 mi SSW 10.4 mph - N/A   Clear
4:52 AM 64.9 °F - 51.1 °F 61% 30.00 in 10.0 mi South 5.8 mph - N/A   Clear
5:52 AM 64.0 °F - 52.0 °F 65% 30.00 in 10.0 mi SSW 9.2 mph - N/A   Clear
6:52 AM 63.0 °F - 52.0 °F 67% 30.01 in 10.0 mi SSW 8.1 mph - N/A   Clear
7:52 AM 64.0 °F - 53.1 °F 67% 30.03 in 10.0 mi SSW 12.7 mph - N/A   Clear
8:52 AM 64.9 °F - 55.9 °F 73% 30.04 in 10.0 mi SSW 10.4 mph - N/A   Clear
9:52 AM 69.1 °F - 59.0 °F 70% 30.05 in 10.0 mi SSW 12.7 mph - N/A   Clear
10:52 AM 73.9 °F - 61.0 °F 64% 30.04 in 10.0 mi SSW 15.0 mph - N/A   Clear
11:52 AM 75.9 °F - 60.1 °F 58% 30.02 in 10.0 mi SSW 16.1 mph 21.9 mph N/A   Clear
12:52 PM 79.0 °F - 60.1 °F 52% 30.00 in 10.0 mi South 15.0 mph - N/A   Clear
1:52 PM 81.0 °F 81.3 °F 59.0 °F 47% 29.97 in 10.0 mi SSW 10.4 mph 19.6 mph N/A   Clear
2:52 PM 82.0 °F 82.0 °F 57.9 °F 44% 29.94 in 10.0 mi South 15.0 mph - N/A   Clear
3:52 PM 82.9 °F 82.4 °F 57.0 °F 41% 29.92 in 10.0 mi South 11.5 mph - N/A   Clear
4:52 PM 84.0 °F 83.0 °F 55.9 °F 38% 29.90 in 10.0 mi South 11.5 mph - N/A   Clear
5:52 PM 84.0 °F 82.9 °F 55.0 °F 37% 29.89 in 10.0 mi SSW 15.0 mph - N/A   Clear
6:52 PM 81.0 °F 80.4 °F 53.1 °F 38% 29.88 in 10.0 mi South 8.1 mph - N/A   Clear
7:52 PM 73.9 °F - 52.0 °F 46% 29.90 in 10.0 mi SE 8.1 mph - N/A   Clear
8:52 PM 72.0 °F - 53.1 °F 51% 29.91 in 10.0 mi SSE 8.1 mph - N/A   Clear
9:52 PM 71.1 °F - 53.1 °F 53% 29.91 in 10.0 mi South 5.8 mph - N/A   Clear
10:52 PM 69.1 °F - 53.1 °F 57% 29.90 in 10.0 mi SSE 9.2 mph - N/A   Clear
11:52 PM 70.0 °F - 53.1 °F 55% 29.89 in 10.0 mi South 9.2 mph - N/A   Clear